www.pogodaiklimat.ru

Погода и климат >> Архив погоды >> Кувейт >> Метеостанция Sabriyah


ПОГОДА на Метеостанции Sabriyah

  • Прогноз погоды на Метеостанции Sabriyah
  • Монитор погоды на Метеостанции Sabriyah

АРХИВ ПОГОДЫ на Метеостанции Sabriyah

Время (UTC), дата Ветер
(напр.,м/с)
 
Видим.   Явления Облачность Т
(С)
Тd
(С)
f
(%)
Тe
(С)
Тes
(С)
Комфортность P
(гПа)
Po
(гПа)
Тmin
(С)
Tmax
(С)
R
(мм)
R24
(мм)
S
(см)
18 15.03 ЮВ 3-5
{8}
9000 м дымка н/о +17.9 +3.8 39 +18 +18 1016.4 1009.7
21 15.03 Ю 2-3
{4}
6000 м дымка н/о +15.9 +2.0 39 +16 +16 1016.7 1010.0 +12.1 +24.4
00 16.03 ЮЗ 3-3
{5}
5000 м дымка н/о +13.8 +0.1 39 +13 +13 1015.9 1009.1
03 16.03 ЮЗ 1-2
{4}
5000 м н/о +12.4 -1.3 39 +14 +14 1016.9 1010.1
06 16.03 Ю 1-2
{4}
5000 м н/о +21.4 +7.1 40 +22 +22 комфорт 1017.2 1010.6
18 16.03 ЮВ 6-7
{10}
5000 м дымка н/о +17.8 +3.9 40 +17 +17 1010.1 1003.5
21 16.03 ЮВ 7-9
{9}
4300 м дымка н/о +18.2 +4.3 40 +18 +18 1008.2 1001.6 +11.5 +24.9
00 17.03 ЮВ 9-12
{13}
6000 м н/о +18.8 +4.9 40 +18 +18 1005.4 998.8
03 17.03 З 3-5
{14}
3100 м слаб. ливневой дождь н/о +18.5 +4.6 40 +19 +19 1006.9 1000.3
06 17.03 СЗ 13-16
{17}
17 км н/о +20.8 +6.5 39 +21 +21 комфорт 1009.5 1002.9
09 17.03 З 12-17
{17}
18 км н/о +22.1 +7.8 40 +23 +23 комфорт 1010.7 1004.2
12 17.03 СЗ 12-17
{19}
19 км н/о +23.3 +8.9 40 +25 +25 комфорт 1010.1 1003.6
15 17.03 СЗ 10-13
{17}
20 км н/о +21.2 +6.9 40 +22 +22 комфорт 1011.7 1005.1
18 17.03 З 3-3
{17}
20 км н/о +16.9 +2.9 39 +17 +17 1014.1 1007.4
21 17.03 З 3-4
{5}
20 км н/о +14.6 +0.7 39 +14 +14 1014.6 1007.9 +14.6 +24.0
00 18.03 З 4-5
{5}
20 км н/о +13.5 -0.3 39 +12 +12 1014.3 1007.6
03 18.03 З 2-3
{5}
20 км н/о +12.9 -0.8 39 +12 +12 1016.1 1009.3
06 18.03 СЗ 7-9
{9}
13 км н/о +18.4 +4.3 39 +18 +18 1018.1 1011.4
09 18.03 СЗ 8-12
{13}
19 км н/о +23.4 +9.0 40 +25 +25 комфорт 1018.1 1011.6
12 18.03 СЗ 9-12
{14}
20 км н/о +22.8 +8.3 39 +24 +24 комфорт 1017.3 1010.7
15 18.03 СЗ 6-7
{13}
19 км н/о +20.9 +6.5 39 +22 +22 комфорт 1018.3 1011.7
18 18.03 СЗ 4-4
{13}
17 км н/о +16.0 +1.8 38 +16 +16 1019.9 1013.2
21 18.03 З 2-3
{4}
20 км н/о +12.5 -1.4 38 +12 +12 1020.0 1013.2 +12.4 +23.7
00 19.03 З 2-2
{4}
20 км н/о +10.7 -3.1 38 +10 +10 1019.2 1012.4
03 19.03 З 3-3
{4}
20 км н/о +8.8 -4.7 38 +7 +7 1019.6 1012.7
06 19.03 С 5-6
{6}
20 км н/о +18.5 +4.2 39 +18 +18 1020.4 1013.7
09 19.03 С 8-11
{12}
20 км н/о +22.7 +8.2 39 +24 +24 комфорт 1018.6 1012.0
12 19.03 С 8-12
{14}
20 км н/о +24.5 +9.9 40 +25 +25 комфорт 1016.4 1009.9
15 19.03 С 5-7
{12}
20 км н/о +21.7 +7.2 39 +23 +23 комфорт 1016.7 1010.1
18 19.03 СВ 3-3
{12}
20 км н/о +17.4 +3.1 38 +18 +18 1017.8 1011.1
21 19.03 С 1-1
{4}
20 км н/о +14.1 +0.1 38 +15 +15 1016.9 1010.1 +8.7 +24.9
00 20.03 С 2-2
{4}
20 км н/о +13.1 -0.8 38 +13 +13 1015.5 1008.7
03 20.03 ЮЗ 2-3
{4}
20 км н/о +10.7 -3.0 38 +10 +10 1016.7 1009.9
06 20.03 Ю 1-2
{4}
17 км н/о +20.9 +6.4 39 +23 +23 комфорт 1017.2 1010.6
09 20.03 В 4-6
{6}
20 км н/о +24.6 +9.9 39 +25 +25 комфорт 1014.8 1008.3
12 20.03 В 4-7
{8}
20 км н/о +25.6 +10.8 39 +27 +27 жарко 1013.1 1006.6
15 20.03 Ю 2-6
{7}
20 км н/о +21.9 +7.4 39 +23 +23 комфорт 1013.8 1007.2
18 20.03 ЮЗ 2-3
{7}
20 км н/о +18.5 +4.2 39 +19 +19 1015.1 1008.5
21 20.03 СВ 2-3
{4}
20 км н/о +16.4 +2.2 38 +17 +17 1014.5 1007.8 +10.3 +25.9
00 21.03 З 2-2
{4}
20 км н/о +14.6 +0.6 38 +15 +15 1013.9 1007.2
03 21.03 СВ 3-4
{6}
20 км н/о +14.3 +0.3 38 +14 +14 1015.1 1008.4
06 21.03 СВ 4-6
{6}
19 км н/о +21.5 +6.8 39 +22 +22 комфорт 1016.2 1009.6
09 21.03 В 3-6
{7}
20 км н/о +25.1 +10.3 39 +26 +26 жарко 1015.4 1008.9
12 21.03 В 3-7
{7}
19 км н/о +26.1 +11.3 40 +27 +27 жарко 1013.1 1006.6
15 21.03 Ю 2-4
{7}
18 км дымка н/о +23.6 +8.9 39 +24 +24 комфорт 1013.6 1007.1
18 21.03 ЮЗ 2-2
{7}
20 км н/о +20.4 +5.8 38 +22 +22 комфорт 1015.0 1008.4
21 21.03 СВ 3-4
{6}
20 км н/о +17.9 +3.5 38 +18 +18 1015.2 1008.5 +14.0 +27.1
00 22.03 С 2-2
{6}
20 км н/о +14.7 +0.6 38 +15 +15 1014.7 1008.0
03 22.03 С 2-3
{4}
19 км н/о +14.2 +0.2 38 +14 +14 1015.9 1009.2
06 22.03 В 4-5
{6}
20 км н/о +22.3 +7.6 39 +23 +23 комфорт 1016.9 1010.3
09 22.03 С 3-6
{8}
19 км н/о +26.8 +11.9 40 +28 +28 жарко 1015.8 1009.3
12 22.03 ЮВ 4-7
{8}
19 км н/о +27.3 +12.3 39 +29 +29 жарко 1013.2 1006.8
15 22.03 Ю 2-5
{8}
19 км н/о +23.7 +8.9 39 +24 +24 комфорт 1013.3 1006.8

 

Местоположение метеостанции Метеостанция Sabriyah (Кувейт): широта 29.75 долгота 47.85 высота над уровнем моря 56 м.

В архиве по умолчанию представлена погода на Метеостанции Sabriyah за последнюю неделю. Архивные данные за месяц целиком и за предыдущие месяцы, начиная с января 2011 года, Вы можете получить, выбрав интересующий диапазон дат из раскрывающегося списка и нажав кнопку "Ввод!".


*Определитесь, кто Вы:
робот инопланетянин человек

Внимание! Время в таблицах - всемирное. Для получения местного времени необходимо прибавить поправку, которая равна 3 ч.

Смотрите также архив погоды в соседних городах и на ближайших метеорологических станциях:

Погода на Метеостанции Jal Aliyah (Кувейт) (30 км)
Погода в Абдали (Кувейт) (39 км)
Погода на Метеостанции Mintribah (Кувейт) (47 км)
Погода в Кувейт Сити (Кувейт) (51 км)
Погода в Аль-Шуаиба (Кувейт) (51 км)
Погода в Эль-Джахра (Кувейт) (51 км)
Погода на Бубияне (Кувейт) (51 км)
Погода на Экспериментальной ферме (Кувейт) (52 км)
Погода Остров Файлака (Кувейт) (52 км)
Погода в Сулайбии (Кувейт) (55 км)

Пояснения к столбцам:

Ветер - указаны скорость ветра в м/с - средняя за 10 мин, порывы в срок и между сроками (в фигурных скобках) и направление, откуда дует ветер: С - северный, СВ - северо-восточный, В - восточный, ЮВ - юго-восточный, Ю - южный, ЮЗ - юго-западный, З - западный, СЗ - северо-западный.
Видимость - горизонтальная дальность видимости в метрах или километрах. При видимости от 1 до 10 км при отсутствии осадков обычно наблюдается дымка, при ухудшении видимости до 1 км и менее - туман. В сухую погоду видимость может ухудшаться дымом, пылью или мглою.
Явления - указаны атмосферные явления, наблюдавшиеся в срок или в последний час перед сроком; фигурными скобками обозначены явления, наблюдавшиеся между сроками (за 1-3 часа до срока); квадратными скобками обозначены град или гололедные отложения с указанием их диаметра в мм.
Облачность - указаны через наклонную черту общая и нижняя облачность в баллах и высота нижней границы облаков в метрах; квадратными скобками обозначены формы облаков: Ci - перистые, Cs - перисто-слоистые, Cc - перисто-кучевые, Ac - высококучевые, As - высокослоистые, Sc - слоисто-кучевые, Ns - слоисто-дождевые, Cu - кучевые, Cb - кучево-дождевые. Подробнее классификацию облаков см. в Атласе облаков (PDF).
T - Температура воздуха - температура, измеренная на высоте 2 м над землей.
Td - Температура точки росы - температура, при понижении до которой содержащийся в воздухе водяной пар достигнет насыщения.
f - Относительная влажность воздуха - влажноcть воздуха, измеренная на высоте 2 м над землей.
Te - Эффективная температура - температура, которую ощущает одетый по сезону человек в тени. Характеристика душности погоды. При расчете учитывается влияние влажности воздуха и скорости ветра на теплоощущения человека.
Tes - Эффективная температура на солнце - температура, которую ощущает человек, с поправкой на солнечный нагрев. Характеристика знойности погоды. Зависит от высоты солнца над горизонтом, облачности и скорости ветра. Ночью, в пасмурную погоду, а также при ветре 12 м/с и более поправка равна нулю.
P - Атмосферное давление - приведенное к уровню моря атмосферное давление.
Po - Атмосферное давление - измеренное на уровне метеостанции атмосферное давление.
Tmin - Минимальная температура - минимум температуры воздуха на высоте 2 м над землей.
Tmax - Максимальная температура - максимум температуры воздуха на высоте 2 м над землей.
R - Количество осадков - Количество выпавших осадков за период времени, мм. При наведении курсора мыши на число - период времени, за который выпало указанное количество осадков.
R24 - Количество осадков - Количество выпавших осадков за 24 часа, мм.
S - Снежный покров - Высота снежного покрова, см. При наведении курсора мыши на число - состояние снежного покрова и степень покрытия местности в баллах.